When you browse on this site, cookies collect data to enhance your experience and personalize the content and advertising you see.
Visit our Privacy Policy to learn more. By continuing to use the site, you agree to this use of cookies and data.
  • In Romania
  • List of Countries
  • For 7 days
  • Water Temperature
  • Weather Map
  • Weather Widgets
  • user-avatar
    Login

    Hourly Weather Kecskemet

    Today, 26 February, Wednesday

    Time Temperature Precipitation Wind Pressure Humidity
    00:00 +9°C° 0.1 mm 5 mps 741 mmHg 77%
    01:00 +10°C° 0 mm 4 mps 740 mmHg 76%
    02:00 +10°C° 0.5 mm 4 mps 739 mmHg 79%
    03:00 +10°C° 0.5 mm 4 mps 739 mmHg 82%
    04:00 +9°C° 0.5 mm 3 mps 738 mmHg 85%
    05:00 +8°C° 1.3 mm 4 mps 738 mmHg 86%
    06:00 +8°C° 1.3 mm 4 mps 737 mmHg 87%
    07:00 +8°C° 0 mm 4 mps 737 mmHg 88%
    08:00 +7°C° 1.1 mm 4 mps 737 mmHg 87%
    09:00 +7°C° 1.1 mm 4 mps 737 mmHg 86%
    10:00 +7°C° 1.1 mm 4 mps 737 mmHg 86%
    11:00 +7°C° 0.7 mm 4 mps 737 mmHg 84%
    12:00 +7°C° 0.7 mm 5 mps 737 mmHg 82%
    13:00 +7°C° 0.7 mm 5 mps 736 mmHg 81%
    14:00 +6°C° 0.5 mm 5 mps 736 mmHg 80%
    15:00 +6°C° 0.5 mm 5 mps 737 mmHg 79%
    16:00 +5°C° 0.5 mm 6 mps 737 mmHg 78%
    17:00 +6°C° 0.1 mm 5 mps 737 mmHg 75%
    18:00 +5°C° 0.1 mm 4 mps 737 mmHg 71%
    19:00 +5°C° 0.1 mm 3 mps 738 mmHg 68%
    20:00 +4°C° 0 mm 3 mps 738 mmHg 68%
    21:00 +4°C° 0 mm 3 mps 738 mmHg 67%
    22:00 +4°C° 0 mm 3 mps 739 mmHg 67%
    23:00 +3°C° 0 mm 4 mps 739 mmHg 67%

    Tomorrow, 27 February, Thursday

    Time Temperature Precipitation Wind Pressure Humidity
    00:00 +3°C° 0 mm 4 mps 740 mmHg 68%
    01:00 +2°C° 0 mm 5 mps 740 mmHg 68%
    02:00 +2°C° 0 mm 5 mps 740 mmHg 70%
    03:00 +1°C° 0 mm 5 mps 740 mmHg 72%
    04:00 +1°C° 0 mm 5 mps 740 mmHg 74%
    05:00 +1°C° 0 mm 6 mps 741 mmHg 73%
    06:00 0°C° 0 mm 7 mps 741 mmHg 72%
    07:00 0°C° 0 mm 8 mps 742 mmHg 71%
    08:00 +1°C° 0 mm 8 mps 743 mmHg 67%
    09:00 +2°C° 0 mm 9 mps 743 mmHg 63%
    10:00 +3°C° 0 mm 9 mps 744 mmHg 60%
    11:00 +3°C° 0 mm 9 mps 744 mmHg 57%
    12:00 +5°C° 0 mm 9 mps 744 mmHg 54%
    13:00 +6°C° 0 mm 8 mps 745 mmHg 51%
    14:00 +6°C° 0 mm 7 mps 744 mmHg 50%
    15:00 +5°C° 0 mm 7 mps 744 mmHg 49%
    16:00 +5°C° 0 mm 6 mps 744 mmHg 49%
    17:00 +5°C° 0 mm 5 mps 744 mmHg 53%
    18:00 +4°C° 0 mm 4 mps 744 mmHg 58%
    19:00 +3°C° 0 mm 3 mps 744 mmHg 63%
    20:00 +3°C° 0 mm 4 mps 744 mmHg 63%
    21:00 +2°C° 0 mm 5 mps 743 mmHg 63%
    22:00 +2°C° 0 mm 6 mps 743 mmHg 62%
    23:00 +2°C° 0 mm 6 mps 742 mmHg 61%

    Day after tomorrow, 28 February, Friday

    Time Temperature Precipitation Wind Pressure Humidity
    00:00 +3°C° 0 mm 7 mps 742 mmHg 59%
    01:00 +2°C° 0 mm 8 mps 741 mmHg 57%
    02:00 +2°C° 0.2 mm 8 mps 741 mmHg 59%
    03:00 +2°C° 0.2 mm 9 mps 740 mmHg 60%
    04:00 +3°C° 0.2 mm 9 mps 740 mmHg 61%
    05:00 +3°C° 0.2 mm 9 mps 740 mmHg 63%
    06:00 +4°C° 0.2 mm 8 mps 740 mmHg 65%
    07:00 +4°C° 0.2 mm 8 mps 740 mmHg 67%
    08:00 +3°C° 0.1 mm 10 mps 741 mmHg 68%
    09:00 +2°C° 0.1 mm 12 mps 741 mmHg 68%
    10:00 +1°C° 0.1 mm 13 mps 742 mmHg 69%
    11:00 +3°C° 0 mm 14 mps 743 mmHg 63%
    12:00 +4°C° 0 mm 14 mps 744 mmHg 56%
    13:00 +4°C° 0 mm 14 mps 745 mmHg 50%
    14:00 +4°C° 0 mm 13 mps 746 mmHg 49%
    15:00 +4°C° 0 mm 12 mps 747 mmHg 48%
    16:00 +4°C° 0 mm 11 mps 748 mmHg 47%
    17:00 +3°C° 0 mm 9 mps 749 mmHg 51%
    18:00 +2°C° 0 mm 8 mps 750 mmHg 56%
    19:00 +2°C° 0 mm 6 mps 751 mmHg 60%
    20:00 +2°C° 0 mm 5 mps 751 mmHg 62%
    21:00 +1°C° 0 mm 5 mps 752 mmHg 65%
    22:00 +1°C° 0 mm 4 mps 752 mmHg 68%
    23:00 0°C° 0 mm 4 mps 752 mmHg 70%

    29 February, Saturday

    Time Temperature Precipitation Wind Pressure Humidity
    00:00 +1°C° 0 mm 3 mps 753 mmHg 72%
    01:00 +1°C° 0 mm 3 mps 753 mmHg 73%
    02:00 +1°C° 0 mm 3 mps 752 mmHg 73%
    03:00 +1°C° 0 mm 3 mps 752 mmHg 72%
    04:00 +1°C° 0 mm 3 mps 752 mmHg 71%
    05:00 +2°C° 0 mm 2 mps 752 mmHg 71%
    06:00 +1°C° 0 mm 2 mps 752 mmHg 72%
    07:00 +1°C° 0 mm 2 mps 752 mmHg 72%
    08:00 +2°C° 0 mm 3 mps 752 mmHg 64%
    09:00 +4°C° 0 mm 4 mps 751 mmHg 57%
    10:00 +5°C° 0 mm 6 mps 751 mmHg 49%
    11:00 +7°C° 0 mm 6 mps 751 mmHg 46%
    12:00 +8°C° 0 mm 6 mps 750 mmHg 42%
    13:00 +9°C° 0 mm 7 mps 750 mmHg 38%
    14:00 +9°C° 0 mm 6 mps 749 mmHg 39%
    15:00 +9°C° 0 mm 6 mps 749 mmHg 40%
    16:00 +9°C° 0 mm 5 mps 748 mmHg 41%
    17:00 +8°C° 0 mm 5 mps 748 mmHg 45%
    18:00 +7°C° 0 mm 4 mps 747 mmHg 49%
    19:00 +6°C° 0 mm 4 mps 747 mmHg 52%
    20:00 +6°C° 0 mm 5 mps 747 mmHg 53%
    21:00 +6°C° 0 mm 5 mps 747 mmHg 53%
    22:00 +6°C° 0 mm 5 mps 746 mmHg 54%
    23:00 +5°C° 0 mm 6 mps 746 mmHg 56%

    1 March, Sunday

    Time Temperature Precipitation Wind Pressure Humidity
    00:00 +5°C° 0 mm 6 mps 746 mmHg 59%
    01:00 +5°C° 0 mm 6 mps 745 mmHg 61%
    02:00 +5°C° 0 mm 6 mps 745 mmHg 61%
    03:00 +5°C° 0 mm 7 mps 745 mmHg 60%
    04:00 +5°C° 0 mm 7 mps 745 mmHg 60%
    05:00 +6°C° 0.1 mm 7 mps 745 mmHg 61%
    06:00 +6°C° 0.1 mm 7 mps 745 mmHg 62%
    07:00 +6°C° 0.1 mm 7 mps 745 mmHg 64%
    08:00 +7°C° 0.2 mm 6 mps 745 mmHg 69%
    09:00 +7°C° 0.2 mm 5 mps 745 mmHg 73%
    10:00 +7°C° 0.2 mm 5 mps 745 mmHg 78%
    11:00 +8°C° 0.7 mm 3 mps 745 mmHg 82%
    12:00 +7°C° 0.7 mm 2 mps 745 mmHg 86%
    13:00 +8°C° 0.7 mm 1 mps 745 mmHg 90%
    14:00 +7°C° 0.4 mm 2 mps 745 mmHg 90%
    15:00 +7°C° 0.4 mm 2 mps 744 mmHg 91%
    16:00 +7°C° 0.4 mm 2 mps 744 mmHg 91%
    17:00 +8°C° 0.7 mm 3 mps 743 mmHg 91%
    18:00 +7°C° 0.7 mm 4 mps 743 mmHg 91%
    19:00 +7°C° 0.7 mm 5 mps 743 mmHg 91%
    20:00 +8°C° 0.3 mm 6 mps 743 mmHg 88%
    21:00 +9°C° 0.3 mm 6 mps 742 mmHg 86%
    22:00 +9°C° 0.3 mm 7 mps 742 mmHg 84%
    23:00 +8°C° 0 mm 6 mps 742 mmHg 86%

    2 March, Monday

    Time Temperature Precipitation Wind Pressure Humidity
    00:00 +7°C° 0 mm 5 mps 742 mmHg 87%
    01:00 +6°C° 0 mm 5 mps 743 mmHg 89%
    02:00 +5°C° 0 mm 5 mps 743 mmHg 90%
    03:00 +3°C° 0 mm 5 mps 743 mmHg 90%
    04:00 +3°C° 0 mm 5 mps 743 mmHg 91%
    05:00 +3°C° 0 mm 5 mps 743 mmHg 89%
    06:00 +3°C° 0 mm 5 mps 744 mmHg 88%
    07:00 +4°C° 0 mm 4 mps 744 mmHg 86%
    08:00 +5°C° 0 mm 4 mps 745 mmHg 81%
    09:00 +6°C° 0 mm 4 mps 745 mmHg 75%
    10:00 +7°C° 0 mm 4 mps 745 mmHg 69%
    11:00 +8°C° 0 mm 4 mps 745 mmHg 61%
    12:00 +10°C° 0 mm 3 mps 746 mmHg 54%
    13:00 +11°C° 0 mm 3 mps 746 mmHg 46%
    14:00 +12°C° 0 mm 2 mps 746 mmHg 44%
    15:00 +12°C° 0 mm 1 mps 746 mmHg 42%
    16:00 +12°C° 0 mm 1 mps 745 mmHg 41%
    17:00 +11°C° 0 mm 1 mps 745 mmHg 46%
    18:00 +10°C° 0 mm 1 mps 745 mmHg 51%
    19:00 +8°C° 0 mm 2 mps 745 mmHg 57%
    20:00 +7°C° 0 mm 2 mps 745 mmHg 59%
    21:00 +7°C° 0 mm 2 mps 745 mmHg 61%
    22:00 +6°C° 0 mm 2 mps 745 mmHg 64%
    23:00 +6°C° 0 mm 2 mps 745 mmHg 68%
    Show more